This is the latest recevied weather packets stored in our database for station/object DW9280. If no packets are shown the sender has not sent any weather packets the latest 10 day(s).
| Time | Temp. | Humidity | Pressure | Rain* | Wind** | Luminosity | Snow |
|---|---|---|---|---|---|---|---|
| 1787922522 | 22.22° C | 68% | 1006.3 hPa | 0 mm | - | 214 W/m² | - |
| 1787922096 | 22.22° C | 68% | 1006.3 hPa | 0 mm | - | 214 W/m² | - |
| 1787921796 | 22.78° C | 68% | 1006.2 hPa | 0 mm | - | 251 W/m² | - |
| 1787921497 | 22.78° C | 71% | 1006.2 hPa | 0 mm | - | 341 W/m² | - |
| 1787921197 | 22.78° C | 70% | 1006.2 hPa | 0 mm | - | 297 W/m² | - |
| 1787920897 | 22.78° C | 71% | 1006.3 hPa | 0 mm | - | 332 W/m² | - |
| 1787920596 | 22.78° C | 73% | 1006.4 hPa | 0 mm | - | 466 W/m² | - |
| 1787920299 | 22.22° C | 72% | 1006.4 hPa | 0 mm | - | 338 W/m² | - |
| 1787919996 | 22.78° C | 73% | 1006.5 hPa | 0 mm | - | 288 W/m² | - |
| 1787919821 | 22.78° C | 74% | 1006.5 hPa | 0 mm | - | 439 W/m² | - |
| 1787919397 | 22.78° C | 76% | 1006.5 hPa | 0 mm | - | 457 W/m² | - |
| 1787919096 | 22.22° C | 78% | 1006.7 hPa | 0 mm | - | 496 W/m² | - |
| 1787918786 | 21.67° C | 79% | 1006.6 hPa | 0 mm | - | 462 W/m² | - |
| 1787918487 | 21.67° C | 80% | 1006.6 hPa | 0 mm | - | 366 W/m² | - |
| 1787918184 | 21.67° C | 80% | 1006.6 hPa | 0 mm | - | 332 W/m² | - |
| 1787917883 | 21.67° C | 81% | 1006.8 hPa | 0 mm | - | 387 W/m² | - |
| 1787917704 | 21.67° C | 82% | 1006.8 hPa | 0 mm | - | 369 W/m² | - |
| 1787917282 | 21.11° C | 83% | 1006.7 hPa | 0 mm | - | 345 W/m² | - |
| 1787916980 | 21.11° C | 84% | 1006.8 hPa | 0 mm | - | 371 W/m² | - |
| 1787916804 | 20.56° C | 85% | 1006.6 hPa | 0 mm | - | 269 W/m² | - |
| 1787916375 | 20.56° C | 85% | 1006.8 hPa | 0 mm | - | 265 W/m² | - |
| 1787916073 | 20.56° C | 84% | 1006.9 hPa | 0 mm | - | 199 W/m² | - |
| 1787915772 | 20.56° C | 84% | 1006.7 hPa | 0 mm | - | 149 W/m² | - |
| 1787915471 | 20.56° C | 84% | 1006.5 hPa | 0 mm | - | 148 W/m² | - |
| 1787915170 | 20.56° C | 84% | 1006.5 hPa | 0 mm | - | 141 W/m² | - |
* Rain latest hour (hover to see other rain measurements)
** Current wind speed in m/s (hover to see current wind gust speed)